DW0805 Weather Reports


Display with metric or nautical units.
time (UTC)temp
F
wind
direction
speed
MPH
gust
MPH
rain 1hr
in
rain 24hr
in
rain mn
in
humidity
%
barometer
mb
20260506131513 60 354 5.0 13.0 0.00 0.00 0.00 58 1010.4
20260506125513 61 357 7.0 14.0 0.00 0.00 0.00 56 1010.3
20260506123513 60 357 8.0 15.0 0.00 0.00 0.00 53 1010.2
20260506121513 61 7 6.0 16.0 0.00 0.00 0.00 55 1010.3
20260506113514 61 0 5.0 10.0 0.00 0.00 0.00 53 1010.4
20260506112513 60 358 3.0 10.0 0.00 0.00 0.00 55 1010.5
20260506110512 60 18 3.0 12.0 0.00 0.00 0.00 55 1010.6
20260506104512 59 60 5.0 9.0 0.00 0.00 0.00 53 1010.6
20260506103513 58 33 5.0 12.0 0.00 0.00 0.00 55 1010.6
20260506102513 59 25 5.0 12.0 0.00 0.00 0.00 54 1010.7
20260506100512 59 8 5.0 10.0 0.00 0.00 0.00 55 1010.8
20260506095513 58 351 5.0 10.0 0.00 0.00 0.00 57 1010.7
20260506094512 58 20 3.0 9.0 0.00 0.00 0.00 58 1010.8
20260506092513 57 5 4.0 10.0 0.00 0.00 0.00 53 1010.8
20260506091513 59 333 5.0 9.0 0.00 0.00 0.00 51 1010.8
20260506090512 59 347 3.0 9.0 0.00 0.00 0.00 51 1010.7
20260506085512 60 27 6.0 13.0 0.00 0.00 0.00 49 1010.7
20260506084513 59 18 5.0 9.0 0.00 0.00 0.00 45 1010.7
20260506083512 59 19 4.0 9.0 0.00 0.00 0.00 48 1010.7
20260506081513 59 42 3.0 9.0 0.00 0.00 0.00 46 1010.6
20260506073513 57 41 4.0 12.0 0.00 0.00 0.00 48 1010.7
20260506070512 56 18 3.0 8.0 0.00 0.00 0.00 50 1010.7
20260506061513 53 38 3.0 8.0 0.00 0.00 0.00 56 1010.9
20260506060512 52 57 5.0 12.0 0.00 0.00 0.00 54 1011.0
20260506044512 45 24 2.0 6.0 0.00 0.00 0.00 74 1011.0
20260506043513 43 19 1.0 3.0 0.00 0.00 0.00 79 1011.0
20260506041513 39 25 0.0 0.0 0.00 0.00 0.00 79 1011.0
20260506040513 39 29 0.0 1.0 0.00 0.00 0.00 77 1010.9
20260506035513 39 30 0.0 1.0 0.00 0.00 0.00 76 1010.8
20260506034513 39 30 0.0 2.0 0.00 0.00 0.00 75 1010.9
20260506033512 39 30 0.0 3.0 0.00 0.00 0.00 74 1011.0
20260506032513 39 38 2.0 3.0 0.00 0.00 0.00 74 1011.0
20260506031512 39 20 0.0 3.0 0.00 0.00 0.00 73 1011.0
20260506030513 40 10 1.0 3.0 0.00 0.00 0.00 71 1011.1
20260506023512 41 42 2.0 6.0 0.00 0.00 0.00 71 1011.2
20260506022513 41 31 1.0 5.0 0.00 0.00 0.00 72 1011.3
20260506020513 43 55 0.0 3.0 0.00 0.00 0.00 68 1011.4
20260506015513 43 53 1.0 6.0 0.00 0.00 0.00 66 1011.5
20260506003513 43 20 2.0 7.0 0.00 0.00 0.00 75 1011.0
20260506000512 43 44 3.0 7.0 0.00 0.00 0.00 79 1010.9
20260505235513 43 33 3.0 6.0 0.00 0.00 0.00 81 1011.0
20260505232512 41 33 2.0 7.0 0.00 0.00 0.00 86 1011.0
20260505231513 41 28 1.0 5.0 0.00 0.00 0.00 87 1011.0
20260505230512 41 3 1.0 3.0 0.00 0.00 0.00 87 1011.1
20260505225512 41 22 1.0 3.0 0.00 0.00 0.00 87 1011.1
20260505221509 41 5 1.0 5.0 0.00 0.00 0.00 88 1011.2
20260505214514 40 9 1.0 3.0 0.00 0.00 0.00 88 1011.3
20260505213512 40 5 1.0 3.0 0.00 0.00 0.00 87 1011.3
20260505210513 40 349 1.0 2.0 0.00 0.00 0.00 84 1011.5
20260505205512 41 349 1.0 2.0 0.00 0.00 0.00 83 1011.4
20260505203513 42 349 0.0 2.0 0.00 0.00 0.00 82 1011.4
20260505201513 43 349 0.0 1.0 0.00 0.00 0.00 80 1011.4
20260505195513 44 349 0.0 2.0 0.00 0.00 0.00 78 1011.5
20260505194513 44 349 1.0 5.0 0.00 0.00 0.00 76 1011.5
20260505190513 47 355 0.0 1.0 0.00 0.00 0.00 70 1011.4
20260505183513 49 350 1.0 5.0 0.00 0.00 0.00 65 1011.1
20260505182513 50 355 2.0 5.0 0.00 0.00 0.00 63 1011.1
20260505174513 52 18 3.0 8.0 0.00 0.00 0.00 53 1011.1
20260505172513 53 356 4.0 9.0 0.00 0.00 0.00 54 1011.1
20260505171514 54 15 3.0 9.0 0.00 0.00 0.00 53 1011.2
20260505161513 55 23 5.0 10.0 0.00 0.00 0.00 57 1011.2
20260505160513 56 7 6.0 12.0 0.00 0.00 0.00 58 1011.3
20260505152514 57 0 6.0 13.0 0.00 0.00 0.00 56 1011.4
20260505140513 57 346 6.0 15.0 0.00 0.00 0.00 62 1011.4